Time,TemperatureF,DewpointF,PressureIn,WindDirection,WindDirectionDegrees,WindSpeedMPH,WindSpeedGustMPH,Humidity,HourlyPrecipIn,Conditions,Clouds,dailyrainin,SoftwareType,DateUTC
2013-07-18 00:02:00,57.2,53.7,30.09,East,90,0.0,-999.0,88,-99.99,,,0.00,Acu-Link.com,2013-07-18 07:02:00,
2013-07-18 00:17:00,57.2,53.7,30.09,ESE,112,0.0,-999.0,88,-99.99,,,0.00,Acu-Link.com,2013-07-18 07:17:00,
2013-07-18 00:32:00,57.2,54.0,30.09,ESE,112,0.0,-999.0,89,-99.99,,,0.00,Acu-Link.com,2013-07-18 07:32:00,
2013-07-18 00:47:00,57.2,53.7,30.09,SSW,202,0.0,-999.0,88,-99.99,,,0.00,Acu-Link.com,2013-07-18 07:47:00,
2013-07-18 01:02:00,57.2,53.7,30.09,East,90,0.0,-999.0,88,-99.99,,,0.00,Acu-Link.com,2013-07-18 08:02:00,
2013-07-18 01:18:00,57.2,54.0,30.09,ENE,67,0.0,-999.0,89,-99.99,,,0.00,Acu-Link.com,2013-07-18 08:18:00,
2013-07-18 01:33:00,57.2,54.3,30.10,West,270,0.0,-999.0,90,-99.99,,,0.00,Acu-Link.com,2013-07-18 08:33:00,
2013-07-18 01:48:00,55.4,52.5,30.10,SSW,202,0.0,-999.0,90,-99.99,,,0.00,Acu-Link.com,2013-07-18 08:48:00,
2013-07-18 02:03:00,55.4,52.5,30.09,East,90,0.0,-999.0,90,-99.99,,,0.00,Acu-Link.com,2013-07-18 09:03:00,
2013-07-18 02:18:00,55.4,52.5,30.10,ENE,67,0.0,-999.0,90,-99.99,,,0.00,Acu-Link.com,2013-07-18 09:18:00,
2013-07-18 02:34:00,55.4,52.5,30.10,East,90,0.0,-999.0,90,-99.99,,,0.00,Acu-Link.com,2013-07-18 09:34:00,
2013-07-18 02:49:00,55.4,54.8,30.10,East,90,0.0,-999.0,98,-99.99,,,0.00,Acu-Link.com,2013-07-18 09:49:00,
2013-07-18 03:04:00,55.4,54.8,30.10,East,90,1.1,-999.0,98,-99.99,,,0.00,Acu-Link.com,2013-07-18 10:04:00,
2013-07-18 03:19:00,55.4,54.8,30.10,East,90,0.0,-999.0,98,-99.99,,,0.00,Acu-Link.com,2013-07-18 10:19:00,
2013-07-18 03:34:00,55.4,54.8,30.10,East,90,0.0,-999.0,98,-99.99,,,0.00,Acu-Link.com,2013-07-18 10:34:00,
2013-07-18 03:49:00,55.4,54.8,30.11,ESE,112,0.0,-999.0,98,-99.99,,,0.00,Acu-Link.com,2013-07-18 10:49:00,
2013-07-18 04:05:00,55.4,54.8,30.11,ENE,67,0.0,-999.0,98,-99.99,,,0.00,Acu-Link.com,2013-07-18 11:05:00,
2013-07-18 04:20:00,55.4,54.8,30.11,ENE,67,0.0,-999.0,98,-99.99,,,0.00,Acu-Link.com,2013-07-18 11:20:00,
2013-07-18 04:35:00,55.4,54.8,30.11,ENE,67,0.0,-999.0,98,-99.99,,,0.00,Acu-Link.com,2013-07-18 11:35:00,
2013-07-18 04:50:00,55.4,54.8,30.11,SSE,157,0.0,-999.0,98,-99.99,,,0.00,Acu-Link.com,2013-07-18 11:50:00,
2013-07-18 05:05:00,55.4,54.8,30.11,ESE,112,0.0,-999.0,98,-99.99,,,0.00,Acu-Link.com,2013-07-18 12:05:00,
2013-07-18 05:21:00,55.4,54.8,30.12,ESE,112,0.0,-999.0,98,-99.99,,,0.00,Acu-Link.com,2013-07-18 12:21:00,
2013-07-18 05:36:00,53.6,53.0,30.12,ESE,112,0.0,-999.0,98,-99.99,,,0.00,Acu-Link.com,2013-07-18 12:36:00,
2013-07-18 05:51:00,53.6,53.0,30.12,South,180,0.0,-999.0,98,-99.99,,,0.00,Acu-Link.com,2013-07-18 12:51:00,
2013-07-18 06:06:00,53.6,53.0,30.12,East,90,0.0,-999.0,98,-99.99,,,0.00,Acu-Link.com,2013-07-18 13:06:00,
2013-07-18 06:21:00,53.6,53.0,30.12,ESE,112,0.0,-999.0,98,-99.99,,,0.00,Acu-Link.com,2013-07-18 13:21:00,
2013-07-18 06:36:00,53.6,53.0,30.12,SE,135,0.0,-999.0,98,-99.99,,,0.00,Acu-Link.com,2013-07-18 13:36:00,
2013-07-18 06:52:00,53.6,53.0,30.13,SSE,157,0.0,-999.0,98,-99.99,,,0.00,Acu-Link.com,2013-07-18 13:52:00,
2013-07-18 07:07:00,55.4,54.8,30.13,South,180,0.0,-999.0,98,-99.99,,,0.00,Acu-Link.com,2013-07-18 14:07:00,
2013-07-18 07:22:00,55.4,54.8,30.13,South,180,0.0,-999.0,98,-99.99,,,0.00,Acu-Link.com,2013-07-18 14:22:00,
2013-07-18 07:37:00,55.4,54.8,30.13,NNE,22,0.0,-999.0,98,-99.99,,,0.00,Acu-Link.com,2013-07-18 14:37:00,
2013-07-18 07:52:00,59.0,55.8,30.13,ESE,112,0.0,-999.0,89,-99.99,,,0.00,Acu-Link.com,2013-07-18 14:52:00,
2013-07-18 08:07:00,59.0,54.5,30.13,WSW,247,1.6,-999.0,85,-99.99,,,0.00,Acu-Link.com,2013-07-18 15:07:00,
2013-07-18 08:23:00,60.8,55.6,30.13,SSW,202,0.0,-999.0,83,-99.99,,,0.00,Acu-Link.com,2013-07-18 15:23:00,
2013-07-18 08:38:00,60.8,55.6,30.13,West,270,2.7,-999.0,83,-99.99,,,0.00,Acu-Link.com,2013-07-18 15:38:00,
2013-07-18 08:53:00,62.6,56.3,30.13,SE,135,1.6,-999.0,80,-99.99,,,0.00,Acu-Link.com,2013-07-18 15:53:00,
2013-07-18 09:08:00,62.6,54.6,30.13,NNE,22,0.0,-999.0,75,-99.99,,,0.00,Acu-Link.com,2013-07-18 16:08:00,
2013-07-18 09:23:00,64.4,55.6,30.13,NNE,22,1.1,-999.0,73,-99.99,,,0.00,Acu-Link.com,2013-07-18 16:23:00,
2013-07-18 09:39:00,64.4,54.4,30.13,NNW,337,1.6,-999.0,70,-99.99,,,0.00,Acu-Link.com,2013-07-18 16:39:00,
2013-07-18 09:54:00,68.0,54.9,30.13,WNW,292,2.0,-999.0,63,-99.99,,,0.00,Acu-Link.com,2013-07-18 16:54:00,
2013-07-18 10:09:00,68.0,55.4,30.13,ENE,67,0.0,-999.0,64,-99.99,,,0.00,Acu-Link.com,2013-07-18 17:09:00,
2013-07-18 10:25:00,73.4,56.7,30.13,West,270,2.0,-999.0,56,-99.99,,,0.00,Acu-Link.com,2013-07-18 17:25:00,
2013-07-18 10:40:00,69.8,55.3,30.13,East,90,2.7,-999.0,60,-99.99,,,0.00,Acu-Link.com,2013-07-18 17:40:00,
2013-07-18 10:55:00,71.6,55.1,30.12,NNE,22,2.7,-999.0,56,-99.99,,,0.00,Acu-Link.com,2013-07-18 17:55:00,
2013-07-18 11:10:00,71.6,54.6,30.12,ESE,112,2.0,-999.0,55,-99.99,,,0.00,Acu-Link.com,2013-07-18 18:10:00,
2013-07-18 11:25:00,73.4,54.7,30.12,NNW,337,2.7,-999.0,52,-99.99,,,0.00,Acu-Link.com,2013-07-18 18:25:00,
2013-07-18 11:40:00,73.4,53.6,30.12,NNW,337,2.0,-999.0,50,-99.99,,,0.00,Acu-Link.com,2013-07-18 18:40:00,
2013-07-18 11:56:00,73.4,53.6,30.12,WSW,247,2.0,-999.0,50,-99.99,,,0.00,Acu-Link.com,2013-07-18 18:56:00,
2013-07-18 12:11:00,75.2,55.8,30.12,SW,225,2.7,-999.0,51,-99.99,,,0.00,Acu-Link.com,2013-07-18 19:11:00,
2013-07-18 12:26:00,75.2,53.0,30.11,East,90,1.6,-999.0,46,-99.99,,,0.00,Acu-Link.com,2013-07-18 19:26:00,
2013-07-18 12:42:00,77.0,54.6,30.11,SSW,202,2.7,-999.0,46,-99.99,,,0.00,Acu-Link.com,2013-07-18 19:42:00,
2013-07-18 12:57:00,77.0,53.4,30.11,West,270,3.1,-999.0,44,-99.99,,,0.00,Acu-Link.com,2013-07-18 19:57:00,
2013-07-18 13:12:00,78.8,55.0,30.10,North,0,2.7,-999.0,44,-99.99,,,0.00,Acu-Link.com,2013-07-18 20:12:00,
2013-07-18 13:27:00,78.8,54.4,30.10,ENE,67,3.6,-999.0,43,-99.99,,,0.00,Acu-Link.com,2013-07-18 20:27:00,
2013-07-18 13:43:00,78.8,53.7,30.10,ENE,67,2.7,-999.0,42,-99.99,,,0.00,Acu-Link.com,2013-07-18 20:43:00,
2013-07-18 13:58:00,80.6,54.0,30.09,NNW,337,3.1,-999.0,40,-99.99,,,0.00,Acu-Link.com,2013-07-18 20:58:00,
2013-07-18 14:13:00,80.6,54.0,30.09,North,0,2.0,-999.0,40,-99.99,,,0.00,Acu-Link.com,2013-07-18 21:13:00,
2013-07-18 14:28:00,80.6,51.9,30.09,NW,315,4.7,-999.0,37,-99.99,,,0.00,Acu-Link.com,2013-07-18 21:28:00,
2013-07-18 14:43:00,80.6,53.3,30.08,NE,45,2.7,-999.0,39,-99.99,,,0.00,Acu-Link.com,2013-07-18 21:43:00,
2013-07-18 14:58:00,80.6,51.2,30.08,NW,315,3.1,-999.0,36,-99.99,,,0.00,Acu-Link.com,2013-07-18 21:58:00,
2013-07-18 15:14:00,82.4,54.2,30.07,West,270,2.7,-999.0,38,-99.99,,,0.00,Acu-Link.com,2013-07-18 22:14:00,
2013-07-18 15:29:00,82.4,52.0,30.07,WNW,292,3.1,-999.0,35,-99.99,,,0.00,Acu-Link.com,2013-07-18 22:29:00,
2013-07-18 15:44:00,82.4,48.7,30.07,NE,45,2.7,-999.0,31,-99.99,,,0.00,Acu-Link.com,2013-07-18 22:44:00,
2013-07-18 15:59:00,80.6,51.2,30.06,WNW,292,2.7,-999.0,36,-99.99,,,0.00,Acu-Link.com,2013-07-18 22:59:00,
2013-07-18 16:14:00,80.6,51.2,30.06,SW,225,1.6,-999.0,36,-99.99,,,0.00,Acu-Link.com,2013-07-18 23:14:00,
2013-07-18 16:30:00,82.4,52.0,30.05,NE,45,1.6,-999.0,35,-99.99,,,0.00,Acu-Link.com,2013-07-18 23:30:00,
2013-07-18 16:45:00,82.4,51.2,30.05,South,180,0.0,-999.0,34,-99.99,,,0.00,Acu-Link.com,2013-07-18 23:45:00,
2013-07-18 17:00:00,82.4,50.4,30.04,NW,315,1.6,-999.0,33,-99.99,,,0.00,Acu-Link.com,2013-07-19 00:00:00,
2013-07-18 17:15:00,80.6,50.4,30.04,South,180,0.0,-999.0,35,-99.99,,,0.00,Acu-Link.com,2013-07-19 00:15:00,
2013-07-18 17:30:00,82.4,51.2,30.04,SSW,202,1.1,-999.0,34,-99.99,,,0.00,Acu-Link.com,2013-07-19 00:30:00,
2013-07-18 17:46:00,82.4,52.7,30.03,SE,135,3.1,-999.0,36,-99.99,,,0.00,Acu-Link.com,2013-07-19 00:46:00,
2013-07-18 18:01:00,86.0,50.9,30.03,West,270,2.0,-999.0,30,-99.99,,,0.00,Acu-Link.com,2013-07-19 01:01:00,
2013-07-18 18:16:00,82.4,50.4,30.03,South,180,0.0,-999.0,33,-99.99,,,0.00,Acu-Link.com,2013-07-19 01:16:00,
2013-07-18 18:31:00,80.6,50.4,30.03,ENE,67,0.0,-999.0,35,-99.99,,,0.00,Acu-Link.com,2013-07-19 01:31:00,
2013-07-18 18:47:00,78.8,53.1,30.03,ENE,67,0.0,-999.0,41,-99.99,,,0.00,Acu-Link.com,2013-07-19 01:47:00,
2013-07-18 19:02:00,78.8,53.1,30.03,WSW,247,0.0,-999.0,41,-99.99,,,0.00,Acu-Link.com,2013-07-19 02:02:00,
2013-07-18 19:17:00,78.8,52.4,30.02,WSW,247,0.0,-999.0,40,-99.99,,,0.00,Acu-Link.com,2013-07-19 02:17:00,
2013-07-18 19:32:00,77.0,53.4,30.02,East,90,0.0,-999.0,44,-99.99,,,0.00,Acu-Link.com,2013-07-19 02:32:00,
2013-07-18 19:47:00,75.2,54.7,30.02,NE,45,0.0,-999.0,49,-99.99,,,0.00,Acu-Link.com,2013-07-19 02:47:00,
2013-07-18 20:03:00,71.6,52.5,30.02,NE,45,0.0,-999.0,51,-99.99,,,0.00,Acu-Link.com,2013-07-19 03:03:00,
2013-07-18 20:18:00,71.6,52.0,30.02,ENE,67,0.0,-999.0,50,-99.99,,,0.00,Acu-Link.com,2013-07-19 03:18:00,
2013-07-18 20:33:00,69.8,51.9,30.02,NE,45,0.0,-999.0,53,-99.99,,,0.00,Acu-Link.com,2013-07-19 03:33:00,
2013-07-18 20:48:00,69.8,52.9,30.02,ENE,67,0.0,-999.0,55,-99.99,,,0.00,Acu-Link.com,2013-07-19 03:48:00,
2013-07-18 21:04:00,68.0,52.2,30.02,ENE,67,0.0,-999.0,57,-99.99,,,0.00,Acu-Link.com,2013-07-19 04:04:00,
2013-07-18 21:19:00,68.0,52.7,30.02,NNE,22,0.0,-999.0,58,-99.99,,,0.00,Acu-Link.com,2013-07-19 04:19:00,
2013-07-18 21:34:00,66.2,52.3,30.02,NNE,22,0.0,-999.0,61,-99.99,,,0.00,Acu-Link.com,2013-07-19 04:34:00,
2013-07-18 21:49:00,64.4,51.1,30.03,NE,45,0.0,-999.0,62,-99.99,,,0.00,Acu-Link.com,2013-07-19 04:49:00,
2013-07-18 22:04:00,64.4,51.5,30.03,ENE,67,0.0,-999.0,63,-99.99,,,0.00,Acu-Link.com,2013-07-19 05:04:00,
2013-07-18 22:19:00,62.6,50.7,30.02,NE,45,0.0,-999.0,65,-99.99,,,0.00,Acu-Link.com,2013-07-19 05:19:00,
2013-07-18 22:35:00,62.6,50.7,30.03,NNE,22,0.0,-999.0,65,-99.99,,,0.00,Acu-Link.com,2013-07-19 05:35:00,
2013-07-18 22:50:00,62.6,51.1,30.03,NE,45,0.0,-999.0,66,-99.99,,,0.00,Acu-Link.com,2013-07-19 05:50:00,
2013-07-18 23:05:00,62.6,50.7,30.02,NNE,22,0.0,-999.0,65,-99.99,,,0.00,Acu-Link.com,2013-07-19 06:05:00,
2013-07-18 23:20:00,62.6,50.7,30.03,NNE,22,0.0,-999.0,65,-99.99,,,0.00,Acu-Link.com,2013-07-19 06:20:00,
2013-07-18 23:35:00,62.6,51.5,30.02,NNE,22,0.0,-999.0,67,-99.99,,,0.00,Acu-Link.com,2013-07-19 06:35:00,
2013-07-18 23:51:00,60.8,49.8,30.03,NNE,22,0.0,-999.0,67,-99.99,,,0.00,Acu-Link.com,2013-07-19 06:51:00,